{"data":{"norad_id":55477,"epoch":"2026-09-20T09:14:35.206944Z","epoch_age_seconds":110280,"freshness":"FRESH","line1":"1 55477U 23015AE  26263.38512971  .00000301  00000+0  20478-4 0  9992","line2":"2 55477  43.0021 301.6828 0001381 267.4343  92.6350 15.27577540200583","mean_motion":15.2757754,"eccentricity":0.0001381,"inclination_deg":43.0021,"raan_deg":301.6828,"arg_perigee_deg":267.4343,"mean_anomaly_deg":92.635,"bstar":2.0478e-5,"rev_number":20058,"period_min":94.266900520153,"perigee_km":482.10893135739,"apogee_km":484.00399299165,"semimajor_km":6861.1934621745,"source":"CELESTRAK","updated_at":"2026-09-21T09:00:33.233371Z"}}